Flag for U.S.A. Weather past 2 weeks in Bristol, Tennessee, U.S.A.

Now
36 °F

Rain. Mostly cloudy.


Feels Like: 32 °F
Forecast: 22 / 42 °F
Wind: 5 mph from Northeast

Location: Abingdon-Southwest Abingdon

Current Time: Mar 5, 2015 at 10:15:58 AM

Latest Report: Mar 5, 2015 at 9:35 AM


Visibility: 5 mi

Pressure: 30.02 "Hg

Humidity: 94%

Dew point: 34 °F

Location of BristolLocation

Historic Weather in Bristol — Graph

°F

Bristol temperature yesterday

Maximum temperature yesterday: 60 °F (at 3:35 PM)
Minimum temperature yesterday: 44 °F (at 12:15 AM)
Average temperature yesterday: 51 °F

Past Weeks' High & Low Weather Summary

 TemperatureHumidityPressure
High60 °F (Mar 4, 3:35 PM)100% (Feb 22, 1:55 AM)30.59 "Hg (Feb 22, 1:55 AM)
Low-7 °F (Feb 20, 3:15 AM)25% (Feb 20, 3:15 PM)29.69 "Hg (Feb 25, 7:55 PM)
Average31 °F74%30.14 "Hg
* Reported Feb 18 9:35 AM — Mar 5 9:15 AM, Bristol, Weather by CustomWeather, © 2015

Note: Actual official high and low records may vary slightly from our data, if they occured in-between our weather recording intervals... More about our weather records

Advertising

Bristol weather history for previous 24 hours

 ConditionsComfort  
Time TempWeatherWind HumidityBarometerVisibility
9:15 AM
Thu, Mar 5
36 °FFog.8 mph95%29.99 "Hg5 mi
8:55 AM36 °FDrizzle. Mostly cloudy.No wind96%30.00 "Hg3 mi
8:35 AM36 °FLight rain. Mostly cloudy.5 mph95%30.02 "Hg2 mi
8:15 AM36 °FHeavy rain. Cloudy.No wind95%30.00 "Hg3 mi
7:55 AM36 °FLight rain. More clouds than sun.No wind96%29.97 "Hg5 mi
7:35 AM36 °FLight rain. More clouds than sun.3 mph97%29.96 "Hg2 mi
7:15 AM36 °FRain. Mostly cloudy.8 mph97%29.95 "Hg10 mi
6:55 AM36 °FLight rain. Low clouds.6 mph97%29.95 "Hg7 mi
6:35 AM36 °FLight rain. Low clouds.3 mph97%29.98 "Hg7 mi
6:15 AM36 °FLight rain. Low clouds.No wind97%30.01 "Hg4 mi
5:55 AM36 °FRain. Mostly cloudy.5 mph97%30.00 "Hg3 mi
5:35 AM36 °FLight rain. Overcast.No wind97%29.96 "Hg2 mi
5:15 AM36 °FRain. Mostly cloudy.No wind96%29.95 "Hg4 mi
4:55 AM37 °FDrizzle. Low clouds.3 mph96%29.93 "Hg3 mi
4:35 AM37 °FDrizzle. Low clouds.No wind95%29.92 "Hg4 mi
4:15 AM38 °FDrizzle. Low clouds.3 mph94%29.92 "Hg4 mi
3:55 AM38 °FDrizzle. Low clouds.6 mph95%29.91 "Hg5 mi
3:35 AM39 °FDrizzle. Low clouds.10 mph96%29.92 "Hg4 mi
3:15 AM41 °FDrizzle. Mostly cloudy.5 mph96%29.92 "Hg10 mi
2:55 AM42 °FMostly cloudy.6 mph97%29.92 "Hg10 mi
2:35 AM42 °FMostly cloudy.No wind97%29.92 "Hg10 mi
2:15 AM42 °FLow clouds.3 mph97%29.93 "Hg10 mi
1:55 AM42 °FLow clouds.3 mph97%29.94 "Hg10 mi
1:35 AM42 °FDrizzle. Low clouds.No wind97%29.94 "Hg10 mi
1:15 AM42 °FDrizzle. Low clouds.No wind96%29.96 "Hg7 mi
12:55 AM42 °FLight rain. Mostly cloudy.No wind96%29.96 "Hg7 mi
12:35 AM43 °FLight rain. Mostly cloudy.3 mph95%29.96 "Hg7 mi
12:15 AM43 °FHeavy rain. Mostly cloudy.No wind94%29.95 "Hg7 mi
11:55 PM
Wed, Mar 4
44 °FRain. Overcast.No wind92%29.95 "Hg5 mi
11:15 PM46 °FOvercast.3 mph91%29.93 "Hg10 mi
10:35 PM48 °FLow clouds.6 mph92%29.92 "Hg10 mi
10:15 PM50 °FLow clouds.10 mph96%29.93 "Hg10 mi
9:55 PM50 °FLow clouds.No wind96%29.90 "Hg10 mi
8:55 PM51 °FOvercast.No wind96%29.89 "Hg10 mi
8:35 PM52 °FOvercast.3 mph94%29.88 "Hg10 mi
8:15 PM52 °FMostly cloudy.No wind95%29.88 "Hg10 mi
7:55 PM53 °FMostly cloudy.No wind94%29.88 "Hg10 mi
7:35 PM53 °FDrizzle. Mostly cloudy.3 mph93%29.85 "Hg10 mi
7:15 PM53 °FMostly cloudy.No wind95%29.85 "Hg10 mi
6:55 PM54 °FMostly cloudy.3 mph92%29.85 "Hg10 mi
6:35 PM54 °FOvercast.No wind94%29.84 "Hg10 mi
6:15 PM55 °FOvercast.No wind90%29.83 "Hg10 mi
5:35 PM56 °FOvercast.No wind90%29.83 "Hg10 mi
5:15 PM56 °FOvercast.No wind88%29.83 "Hg10 mi
4:15 PM58 °FMostly cloudy.5 mph89%29.84 "Hg10 mi
3:55 PM59 °FOvercast.No wind90%29.83 "Hg10 mi
3:35 PM60 °FOvercast.5 mph89%29.84 "Hg10 mi
3:15 PM60 °FMostly cloudy.6 mph95%29.84 "Hg10 mi
2:55 PM58 °FOvercast.No wind100%29.85 "Hg10 mi
2:35 PM58 °FMore clouds than sun.No wind100%29.85 "Hg10 mi
2:15 PM56 °FOvercast.No wind100%29.86 "Hg10 mi
1:55 PM55 °FOvercast.No wind100%29.87 "Hg10 mi
1:35 PM55 °FOvercast.No wind100%29.88 "Hg10 mi
1:15 PM54 °FCloudy.No wind100%29.89 "Hg10 mi
12:55 PM54 °FLow clouds.3 mph100%29.89 "Hg10 mi
12:35 PM55 °FLow clouds.No wind100%29.89 "Hg10 mi
11:55 AM54 °FLow clouds.No wind100%29.91 "Hg10 mi
11:35 AM54 °FFog.No wind100%29.92 "Hg1 mi
11:15 AM54 °FLight rain. Low clouds.No wind100%29.92 "Hg1 mi
10:55 AM54 °FFog.No wind100%29.92 "Hg0 mi
10:35 AM53 °FFog.No wind100%29.92 "Hg0 mi
10:15 AM53 °FFog.No wind100%29.92 "Hg0 mi
Weather by CustomWeather, © 2015

See weather overviewHow to use our weather pages